When you browse on this site, cookies collect data to enhance your experience and personalize the content and advertising you see.
Visit our Privacy Policy to learn more. By continuing to use the site, you agree to this use of cookies and data.

Hourly Weather Neuquén

Today, 19 September, Saturday

Time Temperature Precipitation Wind Pressure Humidity
00:00 +7°C° 0 mm 4 mps 741 mmHg 35%
01:00 +6°C° 0 mm 4 mps 742 mmHg 36%
02:00 +6°C° 0 mm 4 mps 742 mmHg 38%
03:00 +5°C° 0 mm 4 mps 742 mmHg 39%
04:00 +5°C° 0 mm 3 mps 743 mmHg 41%
05:00 +7°C° 0 mm 3 mps 743 mmHg 39%
06:00 +7°C° 0 mm 3 mps 743 mmHg 38%
07:00 +8°C° 0 mm 3 mps 743 mmHg 36%
08:00 +10°C° 0 mm 4 mps 743 mmHg 29%
09:00 +12°C° 0 mm 4 mps 743 mmHg 21%
10:00 +14°C° 0 mm 4 mps 742 mmHg 14%
11:00 +15°C° 0 mm 4 mps 741 mmHg 12%
12:00 +17°C° 0 mm 4 mps 741 mmHg 10%
13:00 +19°C° 0 mm 4 mps 740 mmHg 8%
14:00 +19°C° 0 mm 4 mps 739 mmHg 7%
15:00 +19°C° 0 mm 4 mps 738 mmHg 7%
16:00 +20°C° 0 mm 4 mps 738 mmHg 7%
17:00 +18°C° 0 mm 3 mps 738 mmHg 8%
18:00 +16°C° 0 mm 3 mps 737 mmHg 10%
19:00 +14°C° 0 mm 2 mps 737 mmHg 11%
20:00 +13°C° 0 mm 2 mps 737 mmHg 12%
21:00 +13°C° 0 mm 2 mps 737 mmHg 12%
22:00 +12°C° 0 mm 1 mps 737 mmHg 13%
23:00 +11°C° 0 mm 3 mps 738 mmHg 15%

Tomorrow, 20 September, Sunday

Time Temperature Precipitation Wind Pressure Humidity
00:00 +10°C° 0 mm 4 mps 738 mmHg 17%
01:00 +9°C° 0 mm 5 mps 738 mmHg 19%
02:00 +8°C° 0 mm 6 mps 738 mmHg 23%
03:00 +7°C° 0 mm 6 mps 738 mmHg 27%
04:00 +5°C° 0 mm 6 mps 738 mmHg 31%
05:00 +5°C° 0 mm 7 mps 739 mmHg 36%
06:00 +6°C° 0 mm 7 mps 739 mmHg 41%
07:00 +6°C° 0 mm 7 mps 740 mmHg 46%
08:00 +9°C° 0 mm 7 mps 740 mmHg 37%
09:00 +11°C° 0 mm 7 mps 740 mmHg 29%
10:00 +15°C° 0 mm 8 mps 740 mmHg 21%
11:00 +16°C° 0 mm 7 mps 740 mmHg 19%
12:00 +18°C° 0 mm 7 mps 739 mmHg 16%
13:00 +20°C° 0 mm 7 mps 739 mmHg 13%
14:00 +20°C° 0 mm 6 mps 738 mmHg 13%
15:00 +20°C° 0 mm 6 mps 737 mmHg 13%
16:00 +20°C° 0 mm 6 mps 737 mmHg 12%
17:00 +19°C° 0 mm 6 mps 737 mmHg 14%
18:00 +16°C° 0 mm 5 mps 737 mmHg 17%
19:00 +15°C° 0 mm 5 mps 737 mmHg 19%
20:00 +14°C° 0 mm 5 mps 737 mmHg 21%
21:00 +14°C° 0 mm 5 mps 736 mmHg 22%
22:00 +13°C° 0 mm 5 mps 736 mmHg 24%
23:00 +13°C° 0 mm 5 mps 736 mmHg 26%

Day after tomorrow, 21 September, Monday

Time Temperature Precipitation Wind Pressure Humidity
00:00 +12°C° 0 mm 5 mps 735 mmHg 27%
01:00 +12°C° 0 mm 5 mps 735 mmHg 29%
02:00 +10°C° 0 mm 5 mps 734 mmHg 29%
03:00 +11°C° 0 mm 4 mps 734 mmHg 30%
04:00 +11°C° 0 mm 4 mps 734 mmHg 31%
05:00 +11°C° 0 mm 4 mps 733 mmHg 30%
06:00 +12°C° 0 mm 4 mps 733 mmHg 29%
07:00 +12°C° 0 mm 4 mps 733 mmHg 29%
08:00 +14°C° 0 mm 3 mps 733 mmHg 25%
09:00 +17°C° 0 mm 2 mps 732 mmHg 22%
10:00 +19°C° 0 mm 2 mps 732 mmHg 19%
11:00 +21°C° 0 mm 2 mps 732 mmHg 17%
12:00 +23°C° 0 mm 2 mps 731 mmHg 15%
13:00 +25°C° 0 mm 3 mps 730 mmHg 13%
14:00 +25°C° 0 mm 2 mps 730 mmHg 13%
15:00 +25°C° 0 mm 2 mps 730 mmHg 12%
16:00 +26°C° 0 mm 1 mps 729 mmHg 12%
17:00 +24°C° 0 mm 1 mps 729 mmHg 14%
18:00 +21°C° 0 mm 2 mps 729 mmHg 17%
19:00 +19°C° 0 mm 2 mps 729 mmHg 19%
20:00 +18°C° 0 mm 3 mps 730 mmHg 20%
21:00 +16°C° 0 mm 5 mps 730 mmHg 21%
22:00 +16°C° 0 mm 6 mps 730 mmHg 21%
23:00 +15°C° 0 mm 6 mps 730 mmHg 25%

22 September, Tuesday

Time Temperature Precipitation Wind Pressure Humidity
00:00 +14°C° 0 mm 5 mps 730 mmHg 28%
01:00 +13°C° 0 mm 5 mps 731 mmHg 32%
02:00 +12°C° 0 mm 5 mps 731 mmHg 34%
03:00 +12°C° 0 mm 5 mps 731 mmHg 37%
04:00 +10°C° 0 mm 5 mps 731 mmHg 39%
05:00 +12°C° 0 mm 5 mps 732 mmHg 37%
06:00 +13°C° 0 mm 5 mps 733 mmHg 36%
07:00 +14°C° 0 mm 6 mps 733 mmHg 34%
08:00 +15°C° 0 mm 6 mps 733 mmHg 29%
09:00 +17°C° 0 mm 6 mps 733 mmHg 25%
10:00 +19°C° 0 mm 6 mps 733 mmHg 20%
11:00 +20°C° 0 mm 6 mps 733 mmHg 18%
12:00 +21°C° 0 mm 6 mps 733 mmHg 16%
13:00 +21°C° 0 mm 6 mps 733 mmHg 15%
14:00 +21°C° 0 mm 5 mps 732 mmHg 14%
15:00 +21°C° 0 mm 5 mps 732 mmHg 14%
16:00 +21°C° 0 mm 4 mps 732 mmHg 14%
17:00 +19°C° 0 mm 3 mps 732 mmHg 17%
18:00 +17°C° 0 mm 2 mps 732 mmHg 20%
19:00 +15°C° 0 mm 1 mps 732 mmHg 23%
20:00 +15°C° 0 mm 1 mps 732 mmHg 23%
21:00 +14°C° 0 mm 1 mps 732 mmHg 23%
22:00 +14°C° 0 mm 1 mps 733 mmHg 24%
23:00 +14°C° 0 mm 1 mps 733 mmHg 24%

23 September, Wednesday

Time Temperature Precipitation Wind Pressure Humidity
00:00 +13°C° 0 mm 1 mps 733 mmHg 24%
01:00 +13°C° 0 mm 1 mps 733 mmHg 24%
02:00 +12°C° 0 mm 1 mps 733 mmHg 25%
03:00 +12°C° 0 mm 2 mps 733 mmHg 26%
04:00 +12°C° 0 mm 2 mps 733 mmHg 27%
05:00 +13°C° 0 mm 2 mps 733 mmHg 27%
06:00 +14°C° 0 mm 2 mps 734 mmHg 26%
07:00 +16°C° 0 mm 3 mps 735 mmHg 25%
08:00 +17°C° 0 mm 2 mps 735 mmHg 22%
09:00 +19°C° 0 mm 2 mps 735 mmHg 19%
10:00 +20°C° 0 mm 2 mps 735 mmHg 16%
11:00 +22°C° 0 mm 1 mps 734 mmHg 15%
12:00 +23°C° 0 mm 1 mps 734 mmHg 14%
13:00 +24°C° 0 mm 1 mps 734 mmHg 14%
14:00 +24°C° 0 mm 1 mps 734 mmHg 13%
15:00 +24°C° 0 mm 2 mps 733 mmHg 13%
16:00 +24°C° 0 mm 2 mps 733 mmHg 12%
17:00 +23°C° 0 mm 2 mps 733 mmHg 14%
18:00 +20°C° 0 mm 2 mps 733 mmHg 17%
19:00 +18°C° 0 mm 3 mps 733 mmHg 19%
20:00 +17°C° 0 mm 2 mps 734 mmHg 20%
21:00 +16°C° 0 mm 2 mps 734 mmHg 21%
22:00 +16°C° 0 mm 2 mps 734 mmHg 22%
23:00 +15°C° 0 mm 2 mps 734 mmHg 23%

24 September, Thursday

Time Temperature Precipitation Wind Pressure Humidity
00:00 +15°C° 0 mm 2 mps 734 mmHg 25%
01:00 +13°C° 0 mm 3 mps 734 mmHg 26%
02:00 +13°C° 0 mm 3 mps 734 mmHg 27%
03:00 +12°C° 0 mm 4 mps 734 mmHg 28%
04:00 +12°C° 0 mm 5 mps 734 mmHg 30%
05:00 +12°C° 0 mm 5 mps 735 mmHg 30%
06:00 +13°C° 0 mm 6 mps 735 mmHg 31%
07:00 +13°C° 0 mm 6 mps 736 mmHg 32%
08:00 +15°C° 0 mm 5 mps 736 mmHg 28%
09:00 +18°C° 0 mm 4 mps 736 mmHg 23%
10:00 +19°C° 0 mm 3 mps 735 mmHg 19%
11:00 +20°C° 0 mm 3 mps 735 mmHg 18%
12:00 +21°C° 0 mm 3 mps 735 mmHg 16%
13:00 +23°C° 0 mm 2 mps 734 mmHg 14%
14:00 +24°C° 0 mm 2 mps 734 mmHg 14%
15:00 +24°C° 0 mm 2 mps 734 mmHg 14%
16:00 +24°C° 0 mm 2 mps 734 mmHg 14%
17:00 +21°C° 0 mm 2 mps 734 mmHg 16%
18:00 +20°C° 0 mm 2 mps 734 mmHg 18%
19:00 +18°C° 0 mm 2 mps 734 mmHg 20%
20:00 +17°C° 0 mm 2 mps 734 mmHg 20%
21:00 +16°C° 0 mm 2 mps 734 mmHg 21%
22:00 +16°C° 0 mm 2 mps 734 mmHg 22%
23:00 +15°C° 0 mm 2 mps 734 mmHg 22%
Show more